Flag for Chile Weather past 2 weeks in Easter Island, Chile

Now
64 °F

Partly sunny.


Feels Like: 64 °F
Forecast: 54 / 65 °F
Wind: 8 mph from Southeast

Location: Isla De Pascua

Current Time: Oct 24, 2014 at 8:01:17 PM

Latest Report: Oct 24, 2014 at 7:00 PM


Visibility: N/A

Pressure: 30.21 "Hg

Humidity: 52%

Dew point: 46 °F

Location of Easter IslandLocation

Historic Weather in Easter Island — Graph

°F

Easter Island temperature yesterday

Maximum temperature yesterday: 64 °F (at 2:00 PM)
Minimum temperature yesterday: 57 °F (at 5:00 AM)
Average temperature yesterday: 61 °F

Past Weeks' High & Low Weather Summary

 TemperatureHumidityPressure
High73 °F (Oct 19, 3:00 PM)94% (Oct 16, 4:00 AM)30.36 "Hg (Oct 16, 4:00 AM)
Low52 °F (Oct 16, 3:00 AM)45% (Oct 13, 5:00 AM)30.07 "Hg (Oct 11, 5:00 AM)
Average63 °F67%30.22 "Hg
* Reported Oct 9 6:00 PM — Oct 24 6:00 PM, Easter Island, Weather by CustomWeather, © 2014

Note: Actual official high and low records may vary slightly from our data, if they occured in-between our weather recording intervals... More about our weather records

Advertising

Easter Island weather history for previous 24 hours

 ConditionsComfort  
Time TempWeatherWind HumidityBarometerVisibility
6:00 PM
Oct 24
64 °FPartly sunny.9 mph52%30.21 "HgN/A
5:00 PM63 °FPartly sunny.8 mph64%30.21 "HgN/A
4:00 PM64 °FScattered clouds.8 mph52%30.24 "HgN/A
3:00 PM66 °FScattered clouds.14 mph49%30.24 "HgN/A
2:00 PM63 °FPartly sunny.9 mph59%30.24 "HgN/A
1:00 PM63 °FBroken clouds.9 mph56%30.27 "HgN/A
12:00 PM64 °FScattered clouds.10 mph56%30.27 "HgN/A
11:00 AM63 °FPartly sunny.12 mph56%30.27 "HgN/A
10:00 AM61 °FPassing clouds.9 mph59%30.27 "HgN/A
9:00 AM61 °FPassing clouds.9 mph55%30.24 "HgN/A
7:00 AM59 °FPassing clouds.7 mph59%30.21 "HgN/A
6:00 AM59 °FPassing clouds.9 mph59%30.21 "HgN/A
5:00 AM59 °FPassing clouds.8 mph63%30.21 "HgN/A
4:00 AM57 °FPassing clouds.5 mph72%30.24 "HgN/A
3:00 AM57 °FPassing clouds.6 mph72%30.27 "HgN/A
2:00 AM59 °FPassing clouds.10 mph72%30.30 "HgN/A
1:00 AM61 °FPassing clouds.6 mph63%30.30 "HgN/A
12:00 AM59 °FPassing clouds.6 mph68%30.30 "HgN/A
11:00 PM
Oct 23
61 °FScattered clouds.6 mph63%30.30 "HgN/A
10:00 PM61 °FPartly sunny.5 mph63%30.30 "HgN/A
9:00 PM59 °FScattered clouds.6 mph63%30.27 "HgN/A
8:00 PM63 °FScattered clouds.6 mph52%30.24 "HgN/A
Weather by CustomWeather, © 2014

See weather overviewHow to use our weather pages